Location: C.E.K. Mees Observatory
(42.7003°N, 77.4088°W)
Time: 12:16:53
(UTC-04:00)

ISS - Pass Details

Date: 07 October 2017
Orbit: 401 x 408 km, 51.6° (Epoch: 21 October)

Event Time Altitude Azimuth Distance (km) Brightness Sun altitude
Rises 20:41:31 0° 306° (NW) 2,327 1.2 -23.0°
Reaches altitude 10° 20:43:47 10° 318° (NW) 1,467 -0.3 -23.4°
Enters shadow 20:45:30 22° 343° (NNW) 941 -1.7 -23.7°
